NKS935 KFLL-KDFW

Flight info

Callsign NKS935
Flight time N/A
Altitude 36000
Route BNICE2 DOLIE Y280 REDFN Q105 HRV J58 AEX PNUTS BEREE3
Aircraft A320/M-SDE3FGHIRWY/LB1

Departure

Time 2026-05-03 21:24
Airport Fort Lauderdale Hollywood International Airport (KFLL)

Arrival

Time N/A
Airport Dallas Fort Worth International Airport (KDFW)
Time Latitude Longitude Altitude Speed Heading
2026-05-03 20:30 26.06907 -80.14582 9 ft 0 kts 35°
2026-05-03 20:45 26.06901 -80.14587 9 ft 2 kts 34°
2026-05-03 20:46 26.06889 -80.14596 8 ft 2 kts 35°
2026-05-03 20:46 26.06881 -80.14603 8 ft 2 kts 30°
2026-05-03 20:46 26.06866 -80.14605 8 ft 2 kts 347°
2026-05-03 20:46 26.06856 -80.14601 8 ft 0 kts 323°
2026-05-03 20:47 26.06850 -80.14595 8 ft 0 kts 319°
2026-05-03 20:49 26.06857 -80.14600 8 ft 4 kts 332°
2026-05-03 20:49 26.06884 -80.14620 8 ft 5 kts 316°
2026-05-03 20:49 26.06917 -80.14655 8 ft 7 kts 316°
2026-05-03 20:49 26.06948 -80.14700 8 ft 8 kts 304°
2026-05-03 20:50 26.06955 -80.14755 8 ft 8 kts 238°
2026-05-03 20:50 26.06914 -80.14816 8 ft 12 kts 250°
2026-05-03 20:50 26.06912 -80.14919 8 ft 13 kts 273°
2026-05-03 20:50 26.06913 -80.15024 8 ft 12 kts 270°
2026-05-03 20:51 26.06900 -80.15118 8 ft 12 kts 226°
2026-05-03 20:51 26.06813 -80.15134 8 ft 13 kts 183°
2026-05-03 20:51 26.06726 -80.15136 8 ft 10 kts 187°
2026-05-03 20:51 26.06694 -80.15202 8 ft 11 kts 273°
2026-05-03 20:52 26.06698 -80.15292 8 ft 12 kts 268°
2026-05-03 20:52 26.06696 -80.15391 8 ft 13 kts 270°
2026-05-03 20:52 26.06696 -80.15464 8 ft 0 kts 270°
2026-05-03 20:52 26.06696 -80.15466 8 ft 0 kts 270°
2026-05-03 20:53 26.06695 -80.15472 8 ft 0 kts 270°
2026-05-03 20:53 26.06695 -80.15488 8 ft 2 kts 270°
2026-05-03 20:53 26.06696 -80.15492 8 ft 0 kts 271°
2026-05-03 20:54 26.06696 -80.15494 8 ft 0 kts 271°
2026-05-03 20:55 26.06696 -80.15496 8 ft 0 kts 271°
2026-05-03 20:55 26.06696 -80.15497 8 ft 0 kts 271°
2026-05-03 20:57 26.06696 -80.15506 8 ft 1 kts 271°
2026-05-03 20:57 26.06696 -80.15507 8 ft 0 kts 270°
2026-05-03 20:57 26.06696 -80.15512 8 ft 2 kts 270°
2026-05-03 20:57 26.06696 -80.15540 8 ft 3 kts 270°
2026-05-03 20:58 26.06696 -80.15542 8 ft 0 kts 270°
2026-05-03 20:58 26.06696 -80.15543 8 ft 0 kts 270°
2026-05-03 20:59 26.06696 -80.15545 8 ft 0 kts 270°
2026-05-03 20:59 26.06696 -80.15546 8 ft 0 kts 270°
2026-05-03 21:03 26.06696 -80.15575 8 ft 5 kts 271°
2026-05-03 21:03 26.06696 -80.15601 8 ft 1 kts 270°
2026-05-03 21:04 26.06696 -80.15605 8 ft 0 kts 270°
2026-05-03 21:04 26.06696 -80.15614 8 ft 0 kts 270°
2026-05-03 21:06 26.06696 -80.15623 8 ft 1 kts 270°
2026-05-03 21:07 26.06697 -80.15648 8 ft 0 kts 272°
2026-05-03 21:07 26.06697 -80.15649 8 ft 0 kts 272°
2026-05-03 21:08 26.06697 -80.15654 8 ft 1 kts 272°
2026-05-03 21:08 26.06698 -80.15671 8 ft 3 kts 272°
2026-05-03 21:09 26.06699 -80.15712 8 ft 5 kts 271°
2026-05-03 21:09 26.06699 -80.15723 8 ft 0 kts 271°
2026-05-03 21:10 26.06699 -80.15724 8 ft 1 kts 271°
2026-05-03 21:10 26.06699 -80.15743 8 ft 3 kts 271°
2026-05-03 21:10 26.06699 -80.15765 8 ft 0 kts 270°
2026-05-03 21:11 26.06699 -80.15766 8 ft 0 kts 270°
2026-05-03 21:11 26.06699 -80.15770 8 ft 0 kts 270°
2026-05-03 21:11 26.06699 -80.15774 8 ft 1 kts 266°
2026-05-03 21:11 26.06699 -80.15776 8 ft 0 kts 265°
2026-05-03 21:18 26.06699 -80.15779 8 ft 1 kts 265°
2026-05-03 21:18 26.06696 -80.15795 8 ft 3 kts 252°
2026-05-03 21:18 26.06685 -80.15811 8 ft 0 kts 210°
2026-05-03 21:22 26.06680 -80.15814 8 ft 3 kts 205°
2026-05-03 21:22 26.06614 -80.15822 8 ft 11 kts 174°
2026-05-03 21:22 26.06588 -80.15798 8 ft 4 kts 85°
2026-05-03 21:23 26.06588 -80.15790 8 ft 2 kts 88°
2026-05-03 21:23 26.06585 -80.15531 8 ft 66 kts 90°
2026-05-03 21:23 26.06581 -80.14793 9 ft 123 kts 90°
2026-05-03 21:23 26.06576 -80.13659 89 ft 161 kts 89°
2026-05-03 21:24 26.06575 -80.12427 560 ft 163 kts 89°
2026-05-03 21:24 26.06595 -80.11152 1076 ft 166 kts 79°
2026-05-03 21:24 26.07033 -80.09998 1611 ft 165 kts 57°
2026-05-03 21:24 26.07704 -80.08933 1978 ft 173 kts 54°
2026-05-03 21:25 26.08437 -80.07816 2249 ft 187 kts 49°
2026-05-03 21:25 26.09492 -80.06907 2517 ft 201 kts 25°
2026-05-03 21:25 26.10869 -80.06328 2733 ft 222 kts 19°
2026-05-03 21:25 26.12384 -80.05754 3070 ft 239 kts 18°
2026-05-03 21:26 26.14032 -80.05126 3425 ft 257 kts 15°
2026-05-03 21:26 26.15835 -80.04874 3818 ft 265 kts 354°
2026-05-03 21:26 26.17670 -80.05351 3982 ft 266 kts 340°
2026-05-03 21:26 26.19404 -80.06043 3985 ft 265 kts 339°
2026-05-03 21:27 26.21133 -80.06780 3983 ft 264 kts 334°
2026-05-03 21:27 26.22565 -80.08025 3976 ft 263 kts 306°
2026-05-03 21:27 26.23382 -80.09821 4004 ft 265 kts 291°
2026-05-03 21:27 26.24047 -80.11797 4378 ft 273 kts 291°
2026-05-03 21:28 26.24714 -80.13734 5305 ft 270 kts 290°
2026-05-03 21:28 26.25310 -80.15675 6243 ft 266 kts 284°
2026-05-03 21:28 26.25722 -80.17683 7067 ft 265 kts 278°
2026-05-03 21:28 26.26022 -80.19740 7837 ft 267 kts 277°
2026-05-03 21:29 26.26309 -80.21786 8582 ft 269 kts 277°
2026-05-03 21:29 26.26597 -80.23845 9299 ft 271 kts 277°
2026-05-03 21:29 26.26888 -80.25911 9947 ft 274 kts 277°
2026-05-03 21:29 26.27185 -80.28024 10489 ft 281 kts 277°